Time,TemperatureF,DewpointF,PressureIn,WindDirection,WindDirectionDegrees,WindSpeedMPH,WindSpeedGustMPH,Humidity,HourlyPrecipIn,Conditions,Clouds,dailyrainin,SolarRadiationWatts/m^2,SoftwareType,DateUTC
2013-07-18 00:00:00,77.0,74.0,-100.00,NW,323,0.0,-999.0,91,-99.99,,,-99.99,0.000000,,2013-07-18 05:00:00,
2013-07-18 05:00:00,74.0,72.0,-100.00,NW,322,0.0,-999.0,93,-99.99,,,-99.99,0.000000,,2013-07-18 10:00:00,
2013-07-18 07:00:00,75.0,73.0,-100.00,North,356,1.0,-999.0,93,-99.99,,,-99.99,11.470000,,2013-07-18 12:00:00,
2013-07-18 08:00:00,78.0,75.0,-100.00,WNW,301,0.0,-999.0,91,-99.99,,,-99.99,93.099998,,2013-07-18 13:00:00,
2013-07-18 09:00:00,81.0,74.0,-100.00,West,268,1.0,-999.0,77,-99.99,,,-99.99,252.899994,,2013-07-18 14:00:00,
2013-07-18 09:53:00,81.0,74.0,-100.00,West,268,1.0,-999.0,77,-99.99,,,-99.99,252.899994,,2013-07-18 14:53:00,
2013-07-18 10:00:00,83.0,73.0,-100.00,SSW,195,1.0,-999.0,72,-99.99,,,-99.99,260.200012,,2013-07-18 15:00:00,
2013-07-18 11:00:00,84.0,74.0,-100.00,SW,225,1.0,-999.0,72,-99.99,,,-99.99,386.200012,,2013-07-18 16:00:00,
2013-07-18 11:52:00,84.0,74.0,-100.00,SW,225,1.0,-999.0,72,-99.99,,,-99.99,386.200012,,2013-07-18 16:52:00,
2013-07-18 12:00:00,88.0,76.0,-100.00,WSW,237,2.0,-999.0,67,-99.99,,,-99.99,655.799988,,2013-07-18 17:00:00,
2013-07-18 13:00:00,84.0,72.0,-100.00,WNW,282,2.0,-999.0,66,-99.99,,,-99.99,542.500000,,2013-07-18 18:00:00,
2013-07-18 13:52:00,84.0,72.0,-100.00,WNW,282,2.0,-999.0,66,-99.99,,,-99.99,542.500000,,2013-07-18 18:52:00,
2013-07-18 14:00:00,76.0,72.0,-100.00,NNW,331,4.0,-999.0,87,-99.99,,,-99.99,160.399994,,2013-07-18 19:00:00,
2013-07-18 14:53:00,76.0,72.0,-100.00,NNW,331,4.0,-999.0,87,-99.99,,,-99.99,160.399994,,2013-07-18 19:53:00,
2013-07-18 15:00:00,72.0,72.0,-100.00,SE,143,5.0,-999.0,98,-99.99,,,-99.99,4.400000,,2013-07-18 20:00:00,
2013-07-18 15:52:00,72.0,72.0,-100.00,SE,143,5.0,-999.0,98,-99.99,,,-99.99,4.400000,,2013-07-18 20:52:00,
2013-07-18 16:00:00,72.0,72.0,-100.00,WNW,287,3.0,-999.0,98,-99.99,,,-99.99,9.140000,,2013-07-18 21:00:00,
2013-07-18 16:52:00,72.0,72.0,-100.00,WNW,287,3.0,-999.0,98,-99.99,,,-99.99,9.140000,,2013-07-18 21:52:00,
2013-07-18 17:00:00,72.0,72.0,-100.00,West,268,3.0,-999.0,98,-99.99,,,-99.99,73.599998,,2013-07-18 22:00:00,
2013-07-18 17:53:00,72.0,72.0,-100.00,West,268,3.0,-999.0,98,-99.99,,,-99.99,73.599998,,2013-07-18 22:53:00,
2013-07-18 18:00:00,74.0,72.0,-100.00,WNW,295,2.0,-999.0,95,-99.99,,,-99.99,168.800003,,2013-07-18 23:00:00,
2013-07-18 18:52:00,74.0,72.0,-100.00,WNW,295,2.0,-999.0,95,-99.99,,,-99.99,168.800003,,2013-07-18 23:52:00,
2013-07-18 19:00:00,74.0,72.0,-100.00,NNE,19,3.0,-999.0,93,-99.99,,,-99.99,106.800003,,2013-07-19 00:00:00,
2013-07-18 20:00:00,73.0,72.0,-100.00,NNE,25,3.0,-999.0,95,-99.99,,,-99.99,37.500000,,2013-07-19 01:00:00,
2013-07-18 21:00:00,72.0,72.0,-100.00,ESE,121,1.0,-999.0,97,-99.99,,,-99.99,0.760000,,2013-07-19 02:00:00,
2013-07-18 21:52:00,72.0,72.0,-100.00,ESE,121,1.0,-999.0,97,-99.99,,,-99.99,0.760000,,2013-07-19 02:52:00,
2013-07-18 22:00:00,72.0,72.0,-100.00,South,183,0.0,-999.0,98,-99.99,,,-99.99,0.000000,,2013-07-19 03:00:00,
2013-07-18 22:52:00,72.0,72.0,-100.00,South,183,0.0,-999.0,98,-99.99,,,-99.99,0.000000,,2013-07-19 03:52:00,
2013-07-18 23:00:00,71.0,70.0,-100.00,SSW,208,0.0,-999.0,98,-99.99,,,-99.99,0.000000,,2013-07-19 04:00:00,
2013-07-18 23:52:00,71.0,70.0,-100.00,SSW,208,0.0,-999.0,98,-99.99,,,-99.99,0.000000,,2013-07-19 04:52:00,